Flag for U.S.A. Weather past 2 weeks in Seattle, Washington, U.S.A.

Now
73 °F

Passing clouds.


Feels Like: 77 °F
Forecast: 62 / 72 °F
Wind: 5 mph from Southeast

Location: Seattle Boeing Field

Current Time: Aug 28, 2014 at 12:21:43 AM

Latest Report: Aug 27, 2014 at 11:53 PM


Visibility: 10 mi

Pressure: 30.02 "Hg

Humidity: 51%

Dew point: 54 °F

Location of SeattleLocation

Historic Weather in Seattle — Graph

°F

Seattle temperature yesterday

Maximum temperature yesterday: 87 °F (at 4:53 PM)
Minimum temperature yesterday: 67 °F (at 5:53 AM)
Average temperature yesterday: 76 °F

Past Weeks' High & Low Weather Summary

 TemperatureHumidityPressure
High88 °F (Aug 26, 3:53 PM)87% (Aug 13, 1:53 AM)30.15 "Hg (Aug 13, 1:53 AM)
Low57 °F (Aug 21, 5:53 AM)23% (Aug 26, 5:53 PM)29.77 "Hg (Aug 19, 5:53 PM)
Average70 °F62%29.99 "Hg
* Reported Aug 12 10:53 PM — Aug 27 10:53 PM, Seattle, Weather by CustomWeather, © 2014

Note: Actual official high and low records may vary slightly from our data, if they occured in-between our weather recording intervals... More about our weather records

Advertising

Seattle weather history for previous 24 hours

 ConditionsComfort  
Time TempWeatherWind HumidityBarometerVisibility
10:53 PM
Aug 27
74 °FPassing clouds.3 mph52%30.02 "Hg10 mi
9:53 PM73 °FPassing clouds.No wind57%30.01 "Hg10 mi
8:53 PM75 °FScattered clouds.5 mph55%30.00 "Hg10 mi
7:53 PM78 °FScattered clouds.3 mph48%29.98 "Hg10 mi
6:53 PM82 °FScattered clouds.6 mph43%29.98 "Hg10 mi
5:53 PM86 °FScattered clouds.6 mph33%29.98 "Hg10 mi
4:53 PM87 °FSunny.5 mph28%29.98 "Hg10 mi
3:53 PM86 °FScattered clouds.6 mph36%30.00 "Hg10 mi
2:53 PM85 °FPassing clouds.6 mph39%30.01 "Hg10 mi
1:53 PM82 °FPassing clouds.3 mph44%30.01 "Hg10 mi
12:53 PM82 °FSunny.No wind44%30.03 "Hg10 mi
11:53 AM80 °FSunny.No wind47%30.03 "Hg10 mi
10:53 AM77 °FSunny.3 mph52%30.04 "Hg10 mi
9:53 AM75 °FSunny.3 mph55%30.04 "Hg10 mi
8:53 AM72 °FSunny.No wind61%30.03 "Hg10 mi
7:53 AM69 °FSunny.No wind66%30.03 "Hg10 mi
6:53 AM67 °FClear.No wind68%30.02 "Hg10 mi
5:53 AM67 °FClear.No wind68%30.01 "Hg10 mi
4:53 AM68 °FClear.No wind65%30.01 "Hg10 mi
3:53 AM70 °FClear.No wind61%30.00 "Hg10 mi
2:53 AM71 °FClear.No wind59%30.00 "Hg10 mi
1:53 AM71 °FClear.No wind59%29.99 "Hg10 mi
12:53 AM70 °FClear.No wind59%29.99 "Hg10 mi
Weather by CustomWeather, © 2014

See weather overviewHow to use our weather pages